Погода в Ольхах

Россия / Тульская область     53°29′49″N   37°11′59″E
темп.,
°C
ветер,
м/с
пор.,
м/с
влажн.,
%
обл.,
%
осадки,
мм/ч
давл.,
гПа
погр.,
м
27 января, чт
чт2700:00−13сз2298100 0.1 101829
03:00−16сз1110093 0.1 10199
06:00−16з1199100 0.1 101910
09:00−17юз1110098 0.1 10199
12:00−11ююз249566 0.0 1018144
15:00−10ююз3695100 0.1 1017253
18:00−13ю389640 0.0 1016130
21:00−14ю5119656 0.0 1015175
28 января, пт
пт2800:00−15ю5139776 0.0 1014199
03:00−12ю6149585 0.1 1012271
06:00−11ю6139479 0.1 1009283
09:00−10ююв71495100 0.2 1008313
12:00−7ю71595100 0.6 1006414
15:00−5ю61295100 1.1 1004447
18:00−5ююв61395100 0.3 1004360
21:00−4ю51096100 0.6 1003259
29 января, сб
сб2900:00−3ю41097100 0.3 1003317
03:00−2ююз51095100 0.8 1002455
06:00−2ююз51097100 0.8 1002456
09:00−2ююз51097100 1.5 1002385
12:00−1юз479687 0.6 1003392
15:000з3597100 0.8 1003456
18:00−2зсз599692 0.4 1004371
21:00−6зсз51095100 0.6 1006372
30 января, вс
вс3000:00−8з5109589 0.1 1005283
03:00−10юз41196100 0.2 1004229
06:00−8ююз71495100 0.0 999433
09:00−6ююз91892100 0.2 995815
12:00−5ююз111894100 1.9 9911000
15:00−3ююз91694100 3.3 988752
18:00−3ююз81595100 0.5 987638
21:00−1ююз7139489 0.9 986682
31 января, пн
пн3100:00−1ююз91594100 0.5 9851007
03:00−2ююз71497100 1.3 985814
06:00−3юз8138896 0.8 986838
09:00−5юз71390100 0.9 988678
12:00−4юз71194100 0.3 989978
15:00−6юз71193100 0.7 990829
18:00−7юз61294100 0.3 992584
21:00−7зюз7129396 0.6 993447